Location: Contre
(49.7477°N, 2.0963°E)
Time: 09:46:22
(UTC+00:00)

ISS - Pass Details

Date: 05 March 2024
Orbit: 413 x 419 km, 51.6° (Epoch: 13 April)

Event Time Altitude Azimuth Distance (km) Brightness Sun altitude
Exits shadow 04:20:40 51° 151° (SSE) 545 -3.2 -20.8°
Drops below altitude 10° 04:23:25 10° 122° (ESE) 1,515 -0.4 -20.4°
Sets 04:25:31 0° 119° (ESE) 2,377 0.8 -20.1°
